Погода в Дмитровске

Россия / Орловская область     52°30′19″N   35°08′29″E
темп.,
°C
ветер,
м/с
пор.,
м/с
влажн.,
%
обл.,
%
осадки,
мм/ч
давл.,
гПа
погр.,
м
16 сентября, чт
чт1600:00+7сз36711 0.0 101891
03:00+5ссз37790 0.0 1018121
06:00+4с35850 0.0 102071
09:00+9с34610 0.0 1020419
12:00+13ссз33474 0.0 10201109
15:00+15ссз33414 0.0 10191376
18:00+13с11520 0.0 101910
21:00+8ссв116795 0.0 102010
17 сентября, пт
пт1700:00+7всв3373100 0.0 102035
03:00+6в337399 0.0 101951
06:00+5в227693 0.0 101922
09:00+8в1271100 0.2 1019138
12:00+8вюв3482100 1.1 1018224
15:00+7в3591100 2.8 1018259
18:00+7в4796100 5.8 1017299
21:00+7в5997100 12.6 1017385
18 сентября, сб
сб1800:00+8в61295100 3.6 1017542
03:00+7в71395100 8.9 1017503
06:00+7в71495100 2.8 1017533
09:00+7в81595100 9.9 1018575
12:00+6в91694100 6.9 1018549
15:00+6вюв81595100 13.6 1018531
18:00+7в81696100 5.5 1017447
21:00+8вюв81795100 8.9 1016448
19 сентября, вс
вс1900:00+8вюв81697100 10.2 1016523
03:00+9вюв81896100 18.4 1014779
06:00+9юв71496100 6.4 1014743
09:00+9юв61295100 8.2 1013601
12:00+9юв5996100 0.3 1013472
15:00+10юв4595100 0.4 1012434
18:00+10вюв3596100 0.1 1012283
21:00+9вюв469895 2.5 1011290
20 сентября, пн
пн2000:00+8в4698100 0.0 1011298
03:00+8всв4798100 0.0 1010307
06:00+8всв51098100 0.0 1009421
09:00+8всв61197100 2.3 1008464
12:00+8всв71297100 7.8 1008469
15:00+8всв51098100 15.1 1007557
18:00+9в3798100 3.4 1006401
21:00+8в1498100 6.3 1007240